Temperature
15 15 14 14 14 14 14 13 13 13 13 13 13 12 12 12 12 12 12 12 12 12 12 12 11 11 11 11 11 11 10 10 10 10 10 10 10 11 11 11 11 11 11
15 14 14 14 13 13 13 13 13 13 13 12 12 12 12 12 12 12 12 12 12 11 11 11 11 11 11 11 10 10 10 10 10 9 9 9 10 10 11 11 11 11 11
15 14 14 13 13 13 13 13 12 12 12 12 12 12 11 11 11 11 11 11 11 11 11 11 11 10 10 10 10 10 10 9 9 9 9 9 9 10 10 10 10 10 10
14 14 13 13 12 12 12 12 12 12 12 12 11 11 11 11 11 11 11 11 11 10 10 10 10 10 10 10 9 9 9 9 9 9 9 9 9 9 9 9 10 10 10
14 13 13 12 12 12 12 11 11 11 11 11 11 11 11 11 11 10 10 10 10 10 10 9 9 9 9 9 9 9 9 9 9 9 9 8 9 9 9 8 9 9 9
13 13 12 12 12 11 11 11 11 11 11 11 11 11 10 10 10 10 10 10 10 9 9 9 9 9 9 8 8 8 8 8 8 8 8 8 8 8 8 8 8 9 9
13 12 12 11 11 11 11 11 10 10 10 10 10 10 10 10 10 9 9 9 9 9 9 8 8 8 8 8 8 8 8 8 8 8 8 8 8 8 8 8 8 8 8
12 12 11 11 11 10 10 10 10 10 10 10 10 10 9 9 9 9 9 8 8 8 8 8 8 8 7 7 7 7 7 7 7 7 7 7 7 7 7 7 7 7 7
12 11 11 11 10 10 10 10 9 9 9 9 9 9 9 9 9 9 8 8 8 7 7 7 7 7 7 7 7 7 7 7 7 7 7 7 7 7 7 7 7 7 7
12 11 11 10 10 10 9 9 9 9 9 9 9 9 9 8 8 8 8 8 7 7 7 7 7 6 6 6 6 6 6 6 6 6 6 7 7 7 7 7 7 7 6
11 11 10 10 9 9 9 8 8 8 8 8 8 8 8 8 7 7 7 7 7 6 6 6 6 6 6 6 6 6 6 6 6 6 6 6 6 6 6 6 6 6 6
11 10 10 10 9 9 8 8 8 8 8 7 7 7 7 7 7 7 6 6 6 6 6 6 6 6 5 5 5 5 5 5 5 6 6 6 6 6 6 6 6 6 6
11 10 9 9 8 8 8 7 7 7 7 7 7 7 6 6 6 6 6 6 5 5 5 5 5 5 5 5 5 5 5 5 5 5 5 5 5 5 5 5 5 5 5
10 9 9 8 8 8 7 7 7 7 6 6 6 6 6 6 5 5 5 5 5 5 5 5 4 4 4 4 4 4 4 4 4 4 5 5 5 5 5 5 5 5 5
9 9 8 8 7 7 7 6 6 6 6 6 6 5 5 5 5 5 5 5 4 4 4 4 4 4 4 4 4 4 4 4 4 4 4 4 4 5 4 4 4 4 4
9 8 8 7 7 6 6 6 6 5 5 5 5 5 5 4 4 4 4 4 4 4 4 3 3 3 3 3 3 3 3 3 3 3 4 4 4 4 4 4 4 4 4
8 8 7 7 6 6 5 5 5 5 5 4 4 4 4 4 4 4 4 3 3 3 3 3 3 3 2 3 3 3 3 3 3 3 3 3 3 3 3 3 4 4 4
8 7 6 6 5 5 5 5 4 4 4 4 3 3 3 3 3 3 3 3 3 3 2 2 2 2 2 2 2 2 2 2 2 2 2 2 2 2 2 2 3 3 3
7 6 6 5 5 4 4 4 4 4 3 3 3 3 2 2 2 2 2 2 2 2 2 2 2 1 1 1 1 1 1 1 2 2 1 1 2 2 2 2 2 2 3
6 5 5 4 4 4 4 3 3 3 2 2 2 2 2 1 1 1 1 2 1 1 1 1 1 1 1 1 1 1 1 1 1 1 1 1 1 1 1 2 2 2 2
5 4 4 4 3 3 3 3 2 2 2 1 1 1 1 1 1 1 1 1 1 0 0 0 0 -0 -0 0 0 0 0 0 0 0 1 1 1 1 1 1 1 1 1
4 4 3 3 3 2 2 2 2 1 1 1 1 1 0 0 -0 -0 -0 -0 -1 -1 -1 -1 -0 -1 -1 -1 -1 -0 -0 -0 -0 -0 -0 -0 -0 0 1 1 1 1 1
3 3 3 2 2 2 1 1 1 1 0 0 -0 -0 -0 -1 -1 -1 -1 -1 -1 -1 -2 -2 -2 -1 -1 -1 -1 -1 -1 -1 -1 -1 -1 -1 -1 -0 -0 0 0 0 0
3 2 2 2 1 1 1 0 0 0 -0 -0 -1 -1 -1 -1 -2 -2 -2 -2 -2 -2 -2 -3 -2 -2 -2 -2 -2 -2 -2 -2 -2 -1 -1 -1 -1 -1 -1 -0 -0 -0 -0
2 2 1 1 0 0 -0 -0 -1 -1 -1 -1 -2 -2 -2 -2 -2 -2 -3 -3 -3 -3 -3 -3 -3 -3 -3 -3 -3 -2 -2 -2 -2 -2 -2 -2 -2 -1 -1 -1 -1 -1 -1
1 1 0 -0 -0 -1 -1 -1 -1 -1 -2 -2 -2 -2 -3 -3 -3 -3 -3 -3 -4 -4 -3 -3 -4 -3 -3 -3 -3 -3 -3 -3 -3 -2 -2 -2 -2 -2 -2 -2 -2 -2 -1
Wind_Speed
4 4 3 3 2 1 1 1 2 3 2 2 2 2 3 3 3 3 4 4 4 5 4 4 4 4 4 5 5 5 6 5 4 4 5 6 8 8 8 7 7 7 9
5 4 3 3 2 1 1 1 1 2 2 2 3 3 3 3 3 2 3 4 4 5 5 5 5 5 5 6 6 5 5 5 4 3 3 4 5 6 9 7 7 8 7
4 3 3 3 2 1 0 1 1 2 3 3 2 2 1 1 1 2 2 3 4 4 4 5 5 5 5 6 6 6 7 6 5 5 5 4 5 3 5 7 8 8 7
4 3 2 2 2 1 1 1 1 1 1 2 3 3 3 3 3 3 3 3 3 4 4 4 4 5 5 6 7 6 6 6 6 5 6 6 4 3 3 4 7 8 8
4 3 3 3 2 3 2 1 1 1 1 2 3 4 3 3 2 2 3 4 3 4 4 4 4 4 5 6 6 6 6 6 6 6 5 7 6 6 5 6 5 6 7
4 3 3 3 2 2 1 1 2 2 1 1 2 3 3 3 3 3 4 4 3 3 4 4 4 5 4 5 5 6 7 7 7 7 6 5 5 6 6 7 6 6 6
4 3 3 2 1 1 1 1 2 3 2 1 2 2 2 3 3 3 3 3 3 3 3 3 4 5 5 5 5 6 7 7 8 8 7 7 8 6 6 7 7 7 5
4 3 3 2 1 1 0 1 2 3 3 2 3 3 2 2 3 3 3 3 3 3 3 4 5 6 6 6 6 6 7 7 8 9 8 7 8 7 7 7 6 7 7
4 3 2 2 1 0 0 1 2 3 3 3 3 3 2 2 3 4 4 4 3 4 4 4 5 6 6 6 6 6 7 7 8 8 9 8 7 7 8 7 7 7 8
3 2 2 2 1 1 1 1 2 2 2 2 2 3 2 2 3 3 4 4 4 3 4 4 5 6 6 6 6 6 7 8 8 7 9 9 8 7 7 7 7 8 8
2 2 2 2 1 1 1 2 2 2 2 2 2 3 3 3 3 3 4 4 4 4 5 5 5 6 6 6 6 7 7 8 8 8 9 10 9 7 7 7 7 8 7
2 2 2 1 1 1 1 2 2 3 2 2 3 3 4 4 3 4 4 4 4 4 5 5 6 6 7 7 7 8 8 8 9 9 9 9 8 9 7 7 7 7 7
2 2 2 1 1 1 1 2 2 3 3 3 3 3 4 4 4 5 5 4 5 5 5 5 6 6 6 7 7 7 8 8 9 9 9 9 8 9 8 7 8 7 7
2 2 1 1 1 2 2 2 2 3 4 3 3 3 4 5 5 5 5 5 5 5 6 6 6 6 6 7 7 7 8 9 9 8 8 8 9 9 9 8 8 7 7
2 2 1 0 1 2 2 2 3 3 3 4 4 4 5 5 5 6 5 6 6 6 6 6 7 6 6 6 6 7 8 8 8 8 8 9 9 11 9 8 7 7 7
2 1 1 1 2 2 2 3 3 3 3 4 5 5 5 5 6 6 6 6 6 6 6 6 7 7 7 9 11 9 8 8 8 8 8 8 9 10 11 12 11 9 9
2 1 1 1 2 2 3 3 3 3 3 4 5 6 6 6 7 7 6 6 6 6 6 6 6 7 8 11 12 12 9 8 8 8 8 8 8 9 8 9 9 10 11
2 2 2 2 2 2 3 3 3 3 4 4 5 6 6 7 8 7 7 7 6 6 6 6 6 7 8 11 12 12 8 7 8 7 7 8 8 8 7 6 6 6 7
3 2 1 1 2 2 2 3 3 3 4 5 5 6 7 7 8 8 8 7 7 7 7 6 6 6 7 10 11 11 6 6 7 7 7 7 7 9 7 6 6 6 5
3 2 2 1 2 3 3 3 4 4 5 5 6 6 6 7 8 8 8 7 7 7 6 6 5 6 6 9 10 10 5 6 6 6 6 8 9 9 8 5 6 7 5
2 2 1 1 2 3 2 3 4 5 5 5 5 6 6 7 8 7 6 6 6 7 6 6 5 6 7 8 10 10 5 5 6 6 6 6 10 9 9 7 6 7 5
1 1 1 2 2 3 3 4 5 5 5 5 6 6 6 6 7 6 6 6 6 6 6 5 6 4 5 6 8 10 9 8 6 6 5 5 9 9 9 7 6 6 4
1 1 1 2 3 3 2 4 5 4 5 5 6 6 6 5 5 6 6 6 5 4 5 5 6 5 4 5 9 9 10 10 6 5 7 8 8 8 5 5 6 4 3
0 1 1 3 4 4 3 4 4 4 4 5 6 5 6 6 6 5 5 5 5 5 5 5 5 5 5 5 5 5 5 7 6 5 6 7 7 5 5 5 4 2 2
1 0 1 2 4 4 4 4 4 4 4 5 5 5 5 5 5 5 4 5 4 5 6 5 4 5 6 7 11 8 6 5 5 5 4 3 3 3 3 3 3 2 1
1 1 1 2 4 4 4 4 3 3 4 4 5 4 4 5 5 5 6 7 8 10 10 10 8 7 9 13 12 11 11 10 8 5 3 3 3 3 3 2 2 2 1
Wind_Direction
188 151 148 143 149 158 168 182 178 193 180 191 212 221 235 240 244 237 239 237 225 217 209 219 222 220 221 223 226 233 231 234 225 242 261 256 242 236 232 226 228 230 225
187 163 161 150 155 163 162 222 202 205 190 203 215 221 227 227 227 235 240 241 235 224 221 215 220 220 222 230 232 228 234 238 216 212 239 258 256 244 235 227 228 231 226
169 150 156 149 141 128 77 301 249 232 205 198 208 232 224 224 225 241 241 241 249 234 224 225 220 223 221 229 235 226 226 237 230 211 214 229 240 257 237 229 229 231 228
159 153 149 122 111 90 50 338 268 245 227 203 202 205 216 224 234 231 241 247 243 241 229 234 234 233 230 233 239 238 234 230 236 232 229 235 238 247 262 240 231 232 232
154 155 145 120 94 73 50 351 339 288 243 224 218 217 229 233 233 233 241 246 245 242 234 229 234 239 243 241 240 244 240 233 236 233 233 244 252 246 249 261 248 240 234
134 127 116 110 91 66 32 355 347 327 301 254 247 236 236 241 246 249 245 244 245 246 246 244 239 239 242 247 248 246 243 239 240 238 232 232 236 240 241 252 252 253 249
132 129 125 117 114 89 20 344 339 320 315 307 288 270 255 255 252 253 250 257 255 251 249 265 253 248 246 248 253 252 248 244 243 241 241 238 240 241 239 247 254 258 261
133 130 133 131 120 113 347 341 334 313 310 303 294 292 274 257 256 259 252 251 250 247 246 256 267 259 253 257 254 255 254 251 245 248 246 247 246 242 240 242 251 264 263
136 133 118 113 87 23 352 330 327 318 320 317 308 300 290 275 273 268 258 252 252 255 249 252 264 266 255 253 253 255 255 253 249 248 247 247 249 247 242 238 234 243 261
155 152 136 117 92 45 10 333 329 317 310 317 316 314 299 285 280 279 274 271 266 266 264 263 262 269 262 257 257 260 260 258 255 251 251 249 246 246 243 239 237 235 246
150 142 127 116 104 55 5 338 330 327 322 326 323 321 314 299 286 280 279 282 281 272 265 264 265 268 265 259 256 258 258 259 261 259 254 252 248 248 245 242 238 236 238
131 122 112 93 76 23 339 338 338 338 318 317 321 320 318 312 299 290 285 284 284 280 275 273 270 268 271 267 259 263 264 262 264 262 262 260 257 251 249 246 244 242 239
127 109 89 60 357 339 335 336 339 339 333 329 323 321 318 314 303 296 291 287 283 282 282 283 277 276 274 273 267 263 265 265 266 264 261 262 257 254 252 248 248 250 252
135 124 107 28 345 345 346 338 336 344 343 336 321 314 310 306 301 296 294 293 288 284 282 278 276 276 277 273 274 271 268 270 269 269 268 267 257 253 254 251 247 246 247
168 162 166 331 340 347 349 344 339 344 340 335 325 308 303 301 301 296 294 294 291 290 283 282 279 276 277 276 282 284 276 272 273 272 269 268 267 262 257 257 249 243 244
179 154 136 16 341 333 337 337 335 333 334 328 318 314 308 303 300 295 292 289 288 286 284 284 284 281 284 292 292 291 281 275 274 276 277 275 268 267 261 260 255 248 245
147 111 80 27 344 334 334 328 321 329 329 320 318 320 317 311 302 298 297 291 288 289 285 280 283 282 286 292 292 291 289 279 273 274 277 282 278 275 263 259 257 254 253
103 76 54 15 344 338 339 332 329 328 321 316 317 319 320 317 313 304 296 293 292 291 281 278 279 281 287 295 297 296 288 283 277 275 274 275 278 272 270 257 255 256 256
100 99 82 16 341 333 337 334 326 320 316 312 312 315 317 316 314 308 302 298 296 293 283 280 283 284 289 297 301 303 288 288 287 283 280 278 277 281 283 262 253 257 261
79 74 56 14 335 325 339 328 314 316 310 310 312 315 318 315 310 308 306 304 299 295 291 285 284 285 286 296 301 304 292 290 294 294 286 282 284 285 285 262 249 251 256
68 57 29 334 311 318 331 312 311 309 312 320 321 317 316 315 311 309 310 311 309 306 300 289 287 285 291 297 301 303 300 290 293 295 295 291 293 290 286 278 259 257 261
41 360 336 314 317 328 332 314 310 318 331 330 322 316 316 318 319 316 314 316 315 310 309 306 303 295 298 305 304 305 306 307 294 291 296 299 305 301 295 282 271 271 271
272 339 338 322 322 329 334 316 318 334 331 324 317 316 319 319 320 319 320 319 321 316 313 314 312 315 318 318 319 315 312 313 309 299 302 307 311 312 304 294 288 278 246
286 351 341 323 321 329 334 321 324 331 324 318 316 318 320 322 325 324 322 320 319 317 314 314 314 315 318 321 325 320 316 316 315 310 309 313 313 314 319 320 310 284 236
283 306 309 303 307 319 319 322 325 330 325 319 318 321 324 322 321 321 318 315 309 307 310 310 308 311 313 315 319 321 317 313 305 312 311 310 311 320 324 326 325 319 278
252 269 287 295 304 312 315 320 325 331 323 316 318 320 321 319 318 320 321 321 317 320 321 321 317 314 313 316 318 319 318 319 319 322 320 320 316 314 318 325 330 341 344
Height
1447 1447 1448 1448 1449 1450 1450 1450 1450 1451 1451 1452 1452 1453 1453 1454 1455 1455 1456 1456 1457 1457 1457 1458 1459 1460 1460 1461 1462 1463 1464 1464 1465 1465 1464 1464 1464 1464 1464 1464 1465 1465 1466
1443 1444 1445 1446 1446 1447 1447 1447 1447 1447 1448 1448 1449 1450 1450 1450 1451 1451 1452 1452 1452 1453 1453 1454 1455 1455 1455 1456 1456 1457 1458 1459 1460 1460 1460 1458 1458 1456 1457 1458 1458 1459 1460
1440 1441 1442 1443 1444 1444 1444 1444 1444 1444 1444 1444 1445 1446 1446 1446 1447 1447 1447 1448 1448 1449 1449 1450 1450 1450 1450 1450 1451 1452 1453 1453 1454 1455 1456 1454 1451 1451 1451 1451 1452 1452 1453
1437 1439 1440 1441 1441 1441 1441 1441 1441 1441 1441 1441 1441 1442 1442 1442 1442 1443 1443 1443 1444 1444 1444 1444 1445 1445 1445 1445 1446 1446 1447 1447 1447 1448 1449 1450 1448 1447 1444 1444 1445 1446 1446
1435 1437 1438 1438 1439 1439 1438 1438 1438 1438 1439 1439 1439 1439 1438 1439 1439 1439 1439 1439 1439 1439 1439 1439 1440 1440 1440 1440 1440 1440 1441 1441 1441 1442 1442 1443 1443 1442 1441 1438 1438 1439 1439
1433 1435 1436 1436 1437 1436 1436 1436 1436 1436 1436 1436 1436 1435 1435 1435 1435 1435 1435 1434 1434 1434 1434 1434 1434 1434 1434 1434 1434 1434 1435 1435 1435 1435 1436 1436 1436 1435 1435 1433 1432 1431 1431
1431 1433 1433 1434 1434 1434 1434 1434 1433 1433 1433 1432 1432 1432 1432 1432 1432 1431 1431 1430 1429 1429 1428 1428 1428 1428 1428 1428 1428 1428 1428 1428 1428 1428 1429 1429 1429 1429 1430 1428 1426 1425 1424
1430 1431 1431 1432 1432 1432 1432 1431 1431 1430 1430 1429 1429 1429 1429 1428 1428 1427 1427 1426 1425 1424 1423 1423 1423 1422 1422 1422 1422 1422 1422 1422 1422 1422 1422 1422 1422 1422 1422 1422 1421 1419 1417
1428 1429 1430 1430 1430 1430 1429 1429 1428 1427 1427 1427 1426 1425 1425 1424 1424 1423 1422 1421 1420 1419 1419 1418 1417 1417 1416 1416 1416 1415 1415 1415 1415 1415 1415 1415 1414 1415 1415 1415 1415 1415 1411
1426 1427 1427 1428 1428 1428 1427 1426 1425 1425 1424 1424 1423 1422 1421 1420 1419 1418 1417 1416 1415 1415 1414 1413 1412 1411 1410 1410 1409 1409 1408 1408 1408 1408 1408 1407 1407 1407 1407 1407 1407 1407 1406
1423 1424 1425 1426 1426 1426 1425 1424 1423 1422 1421 1420 1419 1418 1417 1416 1415 1414 1413 1412 1411 1410 1409 1407 1406 1405 1404 1403 1402 1402 1402 1401 1401 1400 1400 1400 1400 1399 1399 1400 1399 1399 1399
1421 1422 1423 1423 1424 1423 1423 1421 1420 1419 1417 1416 1415 1414 1413 1411 1410 1409 1408 1407 1405 1404 1403 1402 1400 1399 1398 1397 1396 1395 1394 1394 1393 1393 1393 1392 1393 1392 1392 1392 1391 1391 1391
1419 1420 1421 1421 1421 1421 1420 1419 1417 1416 1414 1412 1411 1409 1408 1407 1406 1405 1403 1402 1400 1399 1398 1396 1395 1393 1392 1391 1390 1389 1388 1387 1386 1386 1386 1385 1385 1385 1385 1384 1384 1384 1384
1417 1418 1418 1419 1419 1418 1417 1416 1414 1413 1411 1409 1407 1406 1404 1403 1401 1400 1398 1396 1395 1393 1392 1390 1389 1388 1386 1385 1384 1383 1382 1381 1380 1379 1379 1378 1378 1378 1378 1377 1377 1377 1377
1414 1415 1416 1416 1416 1415 1414 1413 1411 1409 1407 1405 1404 1402 1400 1398 1396 1394 1392 1390 1389 1387 1386 1384 1383 1382 1381 1379 1377 1376 1375 1374 1373 1372 1371 1371 1371 1371 1371 1371 1370 1370 1370
1411 1412 1413 1413 1413 1412 1410 1409 1408 1406 1404 1402 1400 1398 1396 1394 1391 1389 1386 1385 1383 1382 1380 1378 1377 1376 1374 1373 1372 1371 1369 1367 1366 1365 1364 1363 1363 1363 1363 1363 1363 1363 1363
1409 1410 1410 1410 1410 1409 1407 1406 1404 1402 1400 1398 1396 1393 1391 1389 1386 1384 1382 1379 1377 1375 1373 1372 1371 1370 1368 1367 1366 1364 1363 1361 1359 1358 1357 1356 1356 1356 1355 1355 1355 1356 1356
1406 1407 1407 1407 1407 1406 1404 1403 1401 1399 1397 1394 1392 1390 1387 1384 1381 1379 1376 1374 1372 1370 1368 1366 1365 1364 1362 1361 1360 1358 1357 1355 1353 1352 1351 1350 1348 1348 1348 1347 1347 1347 1348
1403 1404 1404 1404 1404 1403 1401 1399 1397 1395 1393 1391 1389 1386 1383 1380 1377 1374 1371 1369 1366 1364 1362 1360 1359 1358 1356 1355 1354 1353 1351 1349 1347 1346 1345 1343 1342 1341 1342 1341 1340 1340 1340
1401 1402 1402 1401 1400 1399 1398 1396 1394 1392 1390 1388 1385 1382 1379 1376 1372 1369 1366 1363 1361 1359 1356 1354 1353 1352 1351 1350 1349 1348 1345 1343 1341 1340 1338 1337 1336 1336 1335 1335 1334 1333 1333
1399 1399 1399 1398 1397 1396 1395 1393 1391 1389 1387 1384 1381 1378 1375 1372 1368 1365 1362 1359 1356 1354 1351 1349 1348 1347 1346 1344 1344 1342 1340 1338 1336 1334 1332 1331 1331 1330 1330 1329 1329 1328 1329
1397 1397 1396 1395 1394 1393 1391 1389 1388 1386 1383 1381 1377 1374 1371 1368 1365 1361 1358 1355 1353 1350 1347 1345 1343 1342 1341 1339 1338 1337 1336 1334 1332 1329 1328 1326 1325 1324 1324 1324 1323 1323 1324
1394 1394 1393 1392 1391 1390 1388 1386 1384 1382 1379 1377 1374 1371 1367 1364 1361 1358 1355 1351 1349 1346 1344 1341 1339 1337 1336 1335 1334 1332 1331 1329 1328 1325 1324 1322 1321 1320 1319 1318 1318 1318 1318
1391 1391 1390 1388 1387 1386 1384 1383 1380 1378 1376 1373 1370 1367 1364 1361 1358 1355 1352 1349 1347 1344 1342 1339 1336 1334 1332 1331 1329 1328 1326 1325 1323 1321 1320 1318 1317 1316 1315 1314 1313 1314 1314
1388 1387 1386 1385 1383 1382 1381 1379 1377 1375 1372 1369 1367 1364 1361 1358 1355 1352 1350 1347 1345 1343 1341 1337 1335 1332 1329 1328 1327 1325 1323 1321 1320 1318 1316 1314 1313 1312 1311 1310 1310 1310 1310
1384 1383 1382 1381 1380 1378 1377 1375 1374 1372 1369 1366 1364 1361 1358 1355 1352 1349 1347 1345 1343 1341 1338 1336 1333 1330 1328 1326 1324 1322 1320 1318 1317 1315 1313 1312 1311 1310 1309 1308 1308 1308 1308